• In Hungary
  • List of Countries
  • For 7 days
  • Water Temperature
  • Satellite Maps
  • Weather Map
  • News
  • Weather Widgets
  • user-avatar
    Login

    Hourly Weather Dalniy

    Today, 16 August, Thursday

    Time Temperature Precipitation Wind Pressure Humidity
    00:00 +20°C° 0 mm 2 mps 753 mmHg 45%
    01:00 +20°C° 0 mm 2 mps 753 mmHg 46%
    02:00 +20°C° 0 mm 2 mps 753 mmHg 47%
    03:00 +19°C° 0 mm 2 mps 753 mmHg 47%
    04:00 +19°C° 0 mm 2 mps 753 mmHg 48%
    05:00 +20°C° 0 mm 2 mps 753 mmHg 48%
    06:00 +20°C° 0 mm 2 mps 753 mmHg 49%
    07:00 +22°C° 0 mm 3 mps 753 mmHg 43%
    08:00 +25°C° 0 mm 3 mps 753 mmHg 38%
    09:00 +28°C° 0 mm 4 mps 753 mmHg 32%
    10:00 +29°C° 0 mm 4 mps 753 mmHg 30%
    11:00 +30°C° 0 mm 4 mps 753 mmHg 28%
    12:00 +32°C° 0 mm 4 mps 753 mmHg 25%
    13:00 +32°C° 0 mm 4 mps 753 mmHg 25%
    14:00 +33°C° 0 mm 4 mps 752 mmHg 25%
    15:00 +33°C° 0 mm 3 mps 752 mmHg 24%
    16:00 +31°C° 0 mm 3 mps 752 mmHg 27%
    17:00 +31°C° 0 mm 2 mps 752 mmHg 30%
    18:00 +30°C° 0 mm 2 mps 751 mmHg 33%
    19:00 +28°C° 0 mm 2 mps 751 mmHg 34%
    20:00 +27°C° 0 mm 2 mps 751 mmHg 36%
    21:00 +25°C° 0 mm 1 mps 751 mmHg 38%
    22:00 +25°C° 0 mm 2 mps 751 mmHg 38%
    23:00 +25°C° 0 mm 2 mps 751 mmHg 39%

    Tomorrow, 17 August, Friday

    Time Temperature Precipitation Wind Pressure Humidity
    00:00 +24°C° 0 mm 2 mps 751 mmHg 39%
    01:00 +24°C° 0 mm 2 mps 751 mmHg 40%
    02:00 +23°C° 0 mm 2 mps 751 mmHg 42%
    03:00 +23°C° 0 mm 2 mps 751 mmHg 43%
    04:00 +23°C° 0 mm 2 mps 751 mmHg 46%
    05:00 +23°C° 0 mm 2 mps 751 mmHg 49%
    06:00 +23°C° 0 mm 2 mps 751 mmHg 52%
    07:00 +24°C° 0 mm 2 mps 751 mmHg 50%
    08:00 +26°C° 0 mm 2 mps 751 mmHg 49%
    09:00 +28°C° 0 mm 3 mps 751 mmHg 48%
    10:00 +28°C° 0 mm 3 mps 751 mmHg 49%
    11:00 +28°C° 0 mm 4 mps 751 mmHg 51%
    12:00 +28°C° 0 mm 4 mps 751 mmHg 52%
    13:00 +28°C° 0.1 mm 5 mps 751 mmHg 53%
    14:00 +28°C° 0.1 mm 5 mps 751 mmHg 54%
    15:00 +27°C° 0.1 mm 6 mps 751 mmHg 55%
    16:00 +26°C° 0.5 mm 6 mps 751 mmHg 58%
    17:00 +23°C° 0.5 mm 6 mps 751 mmHg 61%
    18:00 +22°C° 0.5 mm 6 mps 751 mmHg 65%
    19:00 +21°C° 0.1 mm 6 mps 751 mmHg 66%
    20:00 +20°C° 0.1 mm 5 mps 752 mmHg 66%
    21:00 +19°C° 0.1 mm 5 mps 752 mmHg 67%
    22:00 +17°C° 0 mm 5 mps 752 mmHg 69%
    23:00 +17°C° 0 mm 5 mps 752 mmHg 71%

    Day after tomorrow, 18 August, Saturday

    Time Temperature Precipitation Wind Pressure Humidity
    00:00 +16°C° 0 mm 5 mps 752 mmHg 73%
    01:00 +15°C° 0 mm 5 mps 752 mmHg 74%
    02:00 +15°C° 0 mm 5 mps 752 mmHg 75%
    03:00 +14°C° 0 mm 5 mps 752 mmHg 76%
    04:00 +14°C° 0 mm 5 mps 753 mmHg 75%
    05:00 +14°C° 0 mm 5 mps 753 mmHg 74%
    06:00 +14°C° 0 mm 5 mps 753 mmHg 73%
    07:00 +16°C° 0 mm 6 mps 753 mmHg 64%
    08:00 +19°C° 0 mm 6 mps 753 mmHg 56%
    09:00 +21°C° 0 mm 7 mps 753 mmHg 48%
    10:00 +22°C° 0 mm 7 mps 753 mmHg 44%
    11:00 +22°C° 0 mm 7 mps 753 mmHg 41%
    12:00 +23°C° 0 mm 7 mps 753 mmHg 37%
    13:00 +23°C° 0 mm 7 mps 753 mmHg 37%
    14:00 +24°C° 0 mm 7 mps 753 mmHg 37%
    15:00 +24°C° 0 mm 7 mps 753 mmHg 36%
    16:00 +23°C° 0 mm 6 mps 753 mmHg 39%
    17:00 +22°C° 0 mm 6 mps 753 mmHg 42%
    18:00 +21°C° 0 mm 5 mps 753 mmHg 45%
    19:00 +20°C° 0 mm 5 mps 753 mmHg 49%
    20:00 +19°C° 0 mm 5 mps 753 mmHg 53%
    21:00 +16°C° 0 mm 5 mps 754 mmHg 57%
    22:00 +15°C° 0 mm 4 mps 754 mmHg 61%
    23:00 +15°C° 0 mm 4 mps 754 mmHg 64%

    19 August, Sunday

    Time Temperature Precipitation Wind Pressure Humidity
    00:00 +14°C° 0 mm 4 mps 754 mmHg 67%
    01:00 +13°C° 0 mm 4 mps 754 mmHg 70%
    02:00 +13°C° 0 mm 4 mps 754 mmHg 72%
    03:00 +12°C° 0 mm 4 mps 754 mmHg 75%
    04:00 +12°C° 0 mm 4 mps 754 mmHg 74%
    05:00 +12°C° 0 mm 5 mps 754 mmHg 74%
    06:00 +12°C° 0 mm 5 mps 754 mmHg 74%
    07:00 +14°C° 0 mm 6 mps 754 mmHg 65%
    08:00 +15°C° 0 mm 6 mps 754 mmHg 56%
    09:00 +16°C° 0 mm 7 mps 754 mmHg 47%
    10:00 +17°C° 0 mm 7 mps 754 mmHg 45%
    11:00 +18°C° 0 mm 7 mps 754 mmHg 43%
    12:00 +20°C° 0 mm 7 mps 754 mmHg 41%
    13:00 +20°C° 0 mm 7 mps 754 mmHg 40%
    14:00 +21°C° 0 mm 7 mps 753 mmHg 40%
    15:00 +21°C° 0 mm 6 mps 753 mmHg 40%
    16:00 +21°C° 0 mm 6 mps 753 mmHg 42%
    17:00 +20°C° 0 mm 5 mps 753 mmHg 45%
    18:00 +20°C° 0 mm 5 mps 753 mmHg 47%
    19:00 +18°C° 0 mm 4 mps 753 mmHg 52%
    20:00 +17°C° 0 mm 4 mps 754 mmHg 57%
    21:00 +16°C° 0 mm 3 mps 754 mmHg 62%
    22:00 +14°C° 0 mm 3 mps 754 mmHg 64%
    23:00 +13°C° 0 mm 3 mps 754 mmHg 67%

    20 August, Monday

    Time Temperature Precipitation Wind Pressure Humidity
    00:00 +13°C° 0 mm 3 mps 754 mmHg 70%
    01:00 +12°C° 0 mm 3 mps 754 mmHg 72%
    02:00 +12°C° 0 mm 3 mps 754 mmHg 75%
    03:00 +11°C° 0 mm 3 mps 754 mmHg 77%
    04:00 +12°C° 0 mm 3 mps 755 mmHg 76%
    05:00 +12°C° 0 mm 3 mps 755 mmHg 76%
    06:00 +12°C° 0 mm 3 mps 755 mmHg 75%
    07:00 +14°C° 0 mm 3 mps 755 mmHg 67%
    08:00 +17°C° 0 mm 3 mps 755 mmHg 59%
    09:00 +19°C° 0 mm 3 mps 755 mmHg 50%
    10:00 +20°C° 0 mm 3 mps 755 mmHg 46%
    11:00 +21°C° 0 mm 3 mps 755 mmHg 41%
    12:00 +22°C° 0 mm 3 mps 755 mmHg 36%
    13:00 +22°C° 0 mm 3 mps 755 mmHg 34%
    14:00 +24°C° 0 mm 2 mps 755 mmHg 33%
    15:00 +24°C° 0 mm 2 mps 754 mmHg 31%
    16:00 +24°C° 0 mm 2 mps 754 mmHg 33%
    17:00 +23°C° 0 mm 2 mps 754 mmHg 36%
    18:00 +23°C° 0 mm 2 mps 754 mmHg 38%
    19:00 +20°C° 0 mm 2 mps 754 mmHg 41%
    20:00 +20°C° 0 mm 1 mps 755 mmHg 44%
    21:00 +18°C° 0 mm 1 mps 755 mmHg 47%
    22:00 +18°C° 0 mm 1 mps 755 mmHg 48%
    23:00 +16°C° 0 mm 1 mps 755 mmHg 50%

    21 August, Tuesday

    Time Temperature Precipitation Wind Pressure Humidity
    00:00 +16°C° 0 mm 1 mps 755 mmHg 52%
    01:00 +15°C° 0 mm 1 mps 755 mmHg 53%
    02:00 +14°C° 0 mm 0 mps 755 mmHg 54%
    03:00 +14°C° 0 mm 0 mps 755 mmHg 55%
    04:00 +14°C° 0 mm 0 mps 755 mmHg 55%
    05:00 +15°C° 0 mm 0 mps 755 mmHg 55%
    06:00 +15°C° 0 mm 0 mps 755 mmHg 54%
    07:00 +19°C° 0 mm 1 mps 755 mmHg 49%
    08:00 +21°C° 0 mm 1 mps 756 mmHg 43%
    09:00 +23°C° 0 mm 1 mps 756 mmHg 38%
    10:00 +24°C° 0 mm 2 mps 755 mmHg 35%
    11:00 +25°C° 0 mm 2 mps 755 mmHg 32%
    12:00 +26°C° 0 mm 2 mps 755 mmHg 29%
    13:00 +26°C° 0 mm 2 mps 755 mmHg 28%
    14:00 +27°C° 0 mm 2 mps 755 mmHg 27%
    15:00 +27°C° 0 mm 2 mps 754 mmHg 26%
    16:00 +27°C° 0 mm 2 mps 754 mmHg 28%
    17:00 +26°C° 0 mm 2 mps 754 mmHg 31%
    18:00 +25°C° 0 mm 2 mps 754 mmHg 33%
    19:00 +24°C° 0 mm 1 mps 754 mmHg 35%
    20:00 +22°C° 0 mm 1 mps 754 mmHg 37%
    21:00 +21°C° 0 mm 1 mps 754 mmHg 38%
    22:00 +21°C° 0 mm 1 mps 754 mmHg 39%
    23:00 +20°C° 0 mm 1 mps 754 mmHg 40%
    Show more